Time,TemperatureF,DewpointF,PressureIn,WindDirection,WindDirectionDegrees,WindSpeedMPH,WindSpeedGustMPH,Humidity,HourlyPrecipIn,Conditions,Clouds,dailyrainin,SoftwareType,DateUTC
2013-02-07 00:00:00,44.3,38.5,29.91,SE,141,2.0,4.0,80,0.00,,CLR,0.00,VWS V14.01,2013-02-07 06:00:00,
2013-02-07 00:03:00,44.8,38.4,29.92,SE,134,1.0,4.0,78,0.00,,OVC110,0.00,VWS V14.01,2013-02-07 06:03:00,
2013-02-07 00:08:00,44.6,38.2,29.92,ESE,121,3.0,4.0,78,0.00,,OVC110,0.00,VWS V14.01,2013-02-07 06:08:00,
2013-02-07 00:13:00,44.5,38.1,29.92,SE,125,1.0,4.0,78,0.00,,OVC110,0.00,VWS V14.01,2013-02-07 06:13:00,
2013-02-07 00:19:00,44.3,38.2,29.91,ESE,117,0.0,7.0,79,0.00,,OVC110,0.00,VWS V14.01,2013-02-07 06:19:00,
2013-02-07 00:24:00,44.2,38.1,29.91,ESE,115,2.0,7.0,79,0.00,,OVC110,0.00,VWS V14.01,2013-02-07 06:24:00,
2013-02-07 00:29:00,44.1,38.0,29.91,ESE,113,2.0,7.0,79,0.00,,OVC110,0.00,VWS V14.01,2013-02-07 06:29:00,
2013-02-07 00:30:00,44.5,39.0,29.90,SE,129,1.0,3.0,81,0.00,,CLR,0.00,VWS V14.01,2013-02-07 06:30:00,
2013-02-07 00:34:00,44.1,38.3,29.91,ESE,119,0.0,3.0,80,0.00,,OVC110,0.00,VWS V14.01,2013-02-07 06:34:00,
2013-02-07 00:39:00,44.1,38.3,29.91,ESE,115,1.0,3.0,80,0.00,,OVC110,0.00,VWS V14.01,2013-02-07 06:39:00,
2013-02-07 00:44:00,44.1,38.3,29.91,SE,125,1.0,3.0,80,0.00,,OVC110,0.00,VWS V14.01,2013-02-07 06:44:00,
2013-02-07 00:49:00,44.2,38.4,29.91,SE,133,1.0,3.0,80,0.00,,OVC110,0.00,VWS V14.01,2013-02-07 06:49:00,
2013-02-07 00:54:00,44.2,38.4,29.91,SE,137,2.0,3.0,80,0.00,,OVC110,0.00,VWS V14.01,2013-02-07 06:54:00,
2013-02-07 01:00:00,44.3,38.5,29.91,SE,140,1.0,4.0,80,0.00,,OVC110,0.00,VWS V14.01,2013-02-07 07:00:00,
2013-02-07 01:05:00,44.4,38.3,29.91,SE,134,1.0,2.0,79,0.00,,OVC110,0.00,VWS V14.01,2013-02-07 07:05:00,
2013-02-07 01:10:00,44.5,38.4,29.91,SE,135,0.0,2.0,79,0.00,,OVC110,0.00,VWS V14.01,2013-02-07 07:10:00,
2013-02-07 01:15:00,44.5,38.7,29.90,ESE,117,1.0,2.0,80,0.00,,OVC110,0.00,VWS V14.01,2013-02-07 07:15:00,
2013-02-07 01:20:00,44.5,38.7,29.90,SE,130,1.0,2.0,80,0.00,,OVC110,0.00,VWS V14.01,2013-02-07 07:20:00,
2013-02-07 01:25:00,44.6,39.1,29.90,SE,132,1.0,2.0,81,0.00,,OVC110,0.00,VWS V14.01,2013-02-07 07:25:00,
2013-02-07 01:30:00,44.5,39.0,29.90,SE,138,1.0,3.0,81,0.00,,OVC110,0.00,VWS V14.01,2013-02-07 07:30:00,
2013-02-07 01:35:00,44.5,39.4,29.90,SE,137,1.0,3.0,82,0.00,,OVC110,0.00,VWS V14.01,2013-02-07 07:35:00,
2013-02-07 01:40:00,44.4,39.6,29.90,ESE,112,2.0,3.0,83,0.00,,OVC085,0.00,VWS V14.01,2013-02-07 07:40:00,
2013-02-07 01:45:00,44.3,39.5,29.89,ESE,115,2.0,3.0,83,0.00,,OVC085,0.00,VWS V14.01,2013-02-07 07:45:00,
2013-02-07 01:51:00,44.3,39.5,29.90,SE,130,0.0,3.0,83,0.00,,OVC085,0.00,VWS V14.01,2013-02-07 07:51:00,
2013-02-07 01:56:00,44.3,39.8,29.90,SE,136,1.0,3.0,84,0.00,,OVC085,0.00,VWS V14.01,2013-02-07 07:56:00,
2013-02-07 02:00:00,44.3,39.5,29.87,ESE,117,2.0,4.0,83,0.00,,CLR,0.00,VWS V14.01,2013-02-07 08:00:00,
2013-02-07 02:01:00,44.2,39.7,29.89,SE,130,1.0,1.0,84,0.00,,OVC085,0.00,VWS V14.01,2013-02-07 08:01:00,
2013-02-07 02:06:00,44.2,39.7,29.89,SE,136,2.0,4.0,84,0.00,,OVC085,0.00,VWS V14.01,2013-02-07 08:06:00,
2013-02-07 02:11:00,44.3,39.8,29.89,SE,136,0.0,4.0,84,0.00,,OVC085,0.00,VWS V14.01,2013-02-07 08:11:00,
2013-02-07 02:16:00,44.3,39.8,29.88,SE,126,2.0,4.0,84,0.00,,OVC085,0.00,VWS V14.01,2013-02-07 08:16:00,
2013-02-07 02:21:00,44.3,39.8,29.88,SE,142,1.0,4.0,84,0.00,,OVC085,0.00,VWS V14.01,2013-02-07 08:21:00,
2013-02-07 02:26:00,44.4,39.9,29.89,SE,134,0.0,4.0,84,0.00,,OVC085,0.00,VWS V14.01,2013-02-07 08:26:00,
2013-02-07 02:30:00,44.0,39.2,29.85,ESE,118,2.0,3.0,83,0.00,,CLR,0.00,VWS V14.01,2013-02-07 08:30:00,
2013-02-07 02:31:00,44.4,39.9,29.89,ESE,123,0.0,1.0,84,0.00,,OVC085,0.00,VWS V14.01,2013-02-07 08:31:00,
2013-02-07 02:36:00,44.4,39.6,29.88,SE,142,0.0,2.0,83,0.00,,OVC085,0.00,VWS V14.01,2013-02-07 08:36:00,
2013-02-07 02:42:00,44.4,39.6,29.88,ESE,116,1.0,3.0,83,0.00,,-RA,0.00,VWS V14.01,2013-02-07 08:42:00,
2013-02-07 02:47:00,44.4,39.6,29.88,ESE,105,2.0,4.0,83,0.00,,-RA,0.00,VWS V14.01,2013-02-07 08:47:00,
2013-02-07 02:52:00,44.3,39.5,29.87,ESE,115,3.0,4.0,83,0.00,,-RA,0.00,VWS V14.01,2013-02-07 08:52:00,
2013-02-07 02:57:00,44.3,39.5,29.87,ESE,122,2.0,4.0,83,0.00,,-RA,0.00,VWS V14.01,2013-02-07 08:57:00,
2013-02-07 03:00:00,43.4,38.6,29.84,SE,136,1.0,4.0,83,0.00,,CLR,0.00,VWS V14.01,2013-02-07 09:00:00,
2013-02-07 03:02:00,44.3,39.5,29.87,SE,125,2.0,2.0,83,0.00,,-RA,0.00,VWS V14.01,2013-02-07 09:02:00,
2013-02-07 03:07:00,44.3,39.5,29.86,ESE,121,1.0,3.0,83,0.00,,-RA,0.00,VWS V14.01,2013-02-07 09:07:00,
2013-02-07 03:12:00,44.2,39.4,29.86,ESE,123,1.0,3.0,83,0.00,,-RA,0.00,VWS V14.01,2013-02-07 09:12:00,
2013-02-07 03:17:00,44.2,39.4,29.86,ESE,123,1.0,3.0,83,0.00,,-RA,0.00,VWS V14.01,2013-02-07 09:17:00,
2013-02-07 03:22:00,44.1,39.3,29.85,SE,131,1.0,3.0,83,0.00,,-RA,0.00,VWS V14.01,2013-02-07 09:22:00,
2013-02-07 03:28:00,44.0,39.2,29.85,SE,129,1.0,3.0,83,0.00,,-RA,0.00,VWS V14.01,2013-02-07 09:28:00,
2013-02-07 03:30:00,42.2,38.0,29.84,ESE,119,2.0,3.0,85,0.00,,CLR,0.00,VWS V14.01,2013-02-07 09:30:00,
2013-02-07 03:33:00,44.0,39.2,29.85,SE,127,1.0,4.0,83,0.00,,-RA,0.00,VWS V14.01,2013-02-07 09:33:00,
2013-02-07 03:38:00,43.9,39.1,29.85,SE,138,2.0,4.0,83,0.00,,-RA,0.00,VWS V14.01,2013-02-07 09:38:00,
2013-02-07 03:43:00,43.8,39.0,29.85,SE,139,1.0,4.0,83,0.00,,-RA,0.00,VWS V14.01,2013-02-07 09:43:00,
2013-02-07 03:48:00,43.7,38.9,29.85,SE,142,1.0,4.0,83,0.00,,-RA,0.00,VWS V14.01,2013-02-07 09:48:00,
2013-02-07 03:53:00,43.6,38.8,29.85,SE,141,1.0,4.0,83,0.00,,OVC085,0.00,VWS V14.01,2013-02-07 09:53:00,
2013-02-07 03:58:00,43.4,38.6,29.84,SE,137,0.0,4.0,83,0.00,,OVC085,0.00,VWS V14.01,2013-02-07 09:58:00,
2013-02-07 04:00:00,42.6,37.8,29.83,South,172,1.0,4.0,83,0.00,,CLR,0.00,VWS V14.01,2013-02-07 10:00:00,
2013-02-07 04:03:00,43.3,38.5,29.84,SE,138,0.0,2.0,83,0.00,,OVC085,0.00,VWS V14.01,2013-02-07 10:03:00,
2013-02-07 04:08:00,43.2,38.4,29.84,SE,137,1.0,2.0,83,0.00,,OVC085,0.00,VWS V14.01,2013-02-07 10:08:00,
2013-02-07 04:13:00,43.0,38.5,29.84,SE,137,0.0,2.0,84,0.00,,OVC085,0.00,VWS V14.01,2013-02-07 10:13:00,
2013-02-07 04:18:00,42.8,38.3,29.84,SE,137,0.0,2.0,84,0.00,,OVC085,0.00,VWS V14.01,2013-02-07 10:18:00,
2013-02-07 04:24:00,42.5,38.0,29.84,SE,137,0.0,2.0,84,0.00,,OVC085,0.00,VWS V14.01,2013-02-07 10:24:00,
2013-02-07 04:29:00,42.2,38.0,29.84,SE,145,2.0,3.0,85,0.00,,OVC085,0.00,VWS V14.01,2013-02-07 10:29:00,
2013-02-07 04:30:00,42.3,37.5,29.83,SE,125,1.0,3.0,83,0.00,,CLR,0.00,VWS V14.01,2013-02-07 10:30:00,
2013-02-07 04:34:00,42.1,37.9,29.83,SSE,148,1.0,3.0,85,0.00,,OVC085,0.00,VWS V14.01,2013-02-07 10:34:00,
2013-02-07 04:39:00,42.3,37.8,29.83,SE,144,2.0,4.0,84,0.00,,OVC085,0.00,VWS V14.01,2013-02-07 10:39:00,
2013-02-07 04:44:00,42.4,37.9,29.83,SE,142,3.0,4.0,84,0.00,,FEW085,0.00,VWS V14.01,2013-02-07 10:44:00,
2013-02-07 04:49:00,42.5,37.7,29.83,SE,142,0.0,4.0,83,0.00,,FEW085,0.00,VWS V14.01,2013-02-07 10:49:00,
2013-02-07 04:54:00,42.5,37.7,29.83,South,175,1.0,4.0,83,0.00,,FEW085,0.00,VWS V14.01,2013-02-07 10:54:00,
2013-02-07 04:59:00,42.6,37.8,29.83,South,173,0.0,4.0,83,0.00,,FEW085,0.00,VWS V14.01,2013-02-07 10:59:00,
2013-02-07 05:00:00,41.0,36.8,29.83,SE,132,0.0,2.0,85,0.00,,CLR,0.00,VWS V14.01,2013-02-07 11:00:00,
2013-02-07 05:04:00,42.6,37.8,29.83,SSE,163,1.0,2.0,83,0.00,,FEW085,0.00,VWS V14.01,2013-02-07 11:04:00,
2013-02-07 05:10:00,42.5,37.7,29.83,SSE,153,1.0,2.0,83,0.00,,FEW085,0.00,VWS V14.01,2013-02-07 11:10:00,
2013-02-07 05:15:00,42.5,37.7,29.83,SE,141,1.0,2.0,83,0.00,,FEW085,0.00,VWS V14.01,2013-02-07 11:15:00,
2013-02-07 05:20:00,42.4,37.6,29.83,ESE,123,1.0,3.0,83,0.00,,FEW085,0.00,VWS V14.01,2013-02-07 11:20:00,
2013-02-07 05:25:00,42.4,37.6,29.83,SE,124,0.0,3.0,83,0.00,,FEW085,0.00,VWS V14.01,2013-02-07 11:25:00,
2013-02-07 05:30:00,42.3,37.5,29.83,SE,125,1.0,3.0,83,0.00,,FEW085,0.00,VWS V14.01,2013-02-07 11:30:00,
2013-02-07 05:35:00,42.1,37.3,29.83,SE,136,0.0,2.0,83,0.00,,FEW085,0.00,VWS V14.01,2013-02-07 11:35:00,
2013-02-07 05:40:00,41.8,37.0,29.83,SE,136,0.0,2.0,83,0.00,,CLR,0.00,VWS V14.01,2013-02-07 11:40:00,
2013-02-07 05:45:00,41.5,37.0,29.83,SE,136,0.0,2.0,84,0.00,,CLR,0.00,VWS V14.01,2013-02-07 11:45:00,
2013-02-07 05:50:00,41.3,37.1,29.83,SE,132,0.0,2.0,85,0.00,,CLR,0.00,VWS V14.01,2013-02-07 11:50:00,
2013-02-07 05:56:00,41.2,37.0,29.83,SE,132,0.0,2.0,85,0.00,,CLR,0.00,VWS V14.01,2013-02-07 11:56:00,
2013-02-07 06:00:00,43.5,38.7,29.82,SE,126,0.0,2.0,83,0.00,,CLR,0.00,VWS V14.01,2013-02-07 12:00:00,
2013-02-07 06:01:00,41.0,36.8,29.83,SE,132,0.0,0.0,85,0.00,,CLR,0.00,VWS V14.01,2013-02-07 12:01:00,
2013-02-07 06:06:00,40.7,36.5,29.83,SE,132,0.0,0.0,85,0.00,,CLR,0.00,VWS V14.01,2013-02-07 12:06:00,
2013-02-07 06:11:00,40.6,36.8,29.82,SE,132,1.0,1.0,86,0.00,,CLR,0.00,VWS V14.01,2013-02-07 12:11:00,
2013-02-07 06:16:00,40.7,37.4,29.82,SE,132,0.0,1.0,88,0.00,,CLR,0.00,VWS V14.01,2013-02-07 12:16:00,
2013-02-07 06:21:00,41.1,37.8,29.82,SE,135,0.0,1.0,88,0.00,,CLR,0.00,VWS V14.01,2013-02-07 12:21:00,
2013-02-07 06:26:00,41.5,37.9,29.82,SE,135,0.0,1.0,87,0.00,,CLR,0.00,VWS V14.01,2013-02-07 12:26:00,
2013-02-07 06:30:00,44.1,39.3,29.83,SE,126,0.0,0.0,83,0.00,,CLR,0.00,VWS V14.01,2013-02-07 12:30:00,
2013-02-07 06:32:00,41.9,38.0,29.82,SE,135,0.0,0.0,86,0.00,,CLR,0.00,VWS V14.01,2013-02-07 12:32:00,
2013-02-07 06:37:00,42.4,38.5,29.82,SE,135,0.0,2.0,86,0.00,,CLR,0.00,VWS V14.01,2013-02-07 12:37:00,
2013-02-07 06:42:00,42.7,38.5,29.82,SE,135,0.0,2.0,85,0.00,,CLR,0.00,VWS V14.01,2013-02-07 12:42:00,
2013-02-07 06:47:00,43.0,38.5,29.82,SE,128,0.0,2.0,84,0.00,,CLR,0.00,VWS V14.01,2013-02-07 12:47:00,
2013-02-07 06:52:00,43.3,38.8,29.82,SE,126,0.0,2.0,84,0.00,,CLR,0.00,VWS V14.01,2013-02-07 12:52:00,
2013-02-07 06:57:00,43.4,38.6,29.82,SE,126,0.0,2.0,83,0.00,,CLR,0.00,VWS V14.01,2013-02-07 12:57:00,
2013-02-07 07:00:00,45.6,40.1,29.83,ESE,113,0.0,1.0,81,0.00,,CLR,0.00,VWS V14.01,2013-02-07 13:00:00,
2013-02-07 07:03:00,43.6,38.8,29.82,SE,126,0.0,0.0,83,0.00,,CLR,0.00,VWS V14.01,2013-02-07 13:03:00,
2013-02-07 07:08:00,43.6,38.8,29.82,SE,126,0.0,0.0,83,0.00,,CLR,0.00,VWS V14.01,2013-02-07 13:08:00,
2013-02-07 07:13:00,43.7,38.9,29.82,SE,126,0.0,0.0,83,0.00,,CLR,0.00,VWS V14.01,2013-02-07 13:13:00,
2013-02-07 07:18:00,43.8,39.0,29.82,SE,126,0.0,0.0,83,0.00,,CLR,0.00,VWS V14.01,2013-02-07 13:18:00,
2013-02-07 07:23:00,43.9,39.1,29.82,SE,126,0.0,0.0,83,0.00,,CLR,0.00,VWS V14.01,2013-02-07 13:23:00,
2013-02-07 07:28:00,44.1,39.3,29.83,SE,126,0.0,0.0,83,0.00,,CLR,0.00,VWS V14.01,2013-02-07 13:28:00,
2013-02-07 07:30:00,47.5,41.3,29.83,SE,134,2.0,3.0,79,0.00,,CLR,0.00,VWS V14.01,2013-02-07 13:30:00,
2013-02-07 07:33:00,44.2,39.4,29.83,SE,126,0.0,0.0,83,0.00,,CLR,0.00,VWS V14.01,2013-02-07 13:33:00,
2013-02-07 07:38:00,44.4,39.3,29.83,SE,126,0.0,0.0,82,0.00,,CLR,0.00,VWS V14.01,2013-02-07 13:38:00,
2013-02-07 07:43:00,44.6,39.5,29.83,SE,126,0.0,0.0,82,0.00,,OVC035,0.00,VWS V14.01,2013-02-07 13:43:00,
2013-02-07 07:48:00,44.8,39.7,29.83,SE,126,0.0,0.0,82,0.00,,OVC035,0.00,VWS V14.01,2013-02-07 13:48:00,
2013-02-07 07:53:00,45.2,39.7,29.84,ESE,113,0.0,1.0,81,0.00,,OVC035,0.00,VWS V14.01,2013-02-07 13:53:00,
2013-02-07 07:59:00,45.5,40.0,29.83,ESE,113,0.0,1.0,81,0.00,,OVC035,0.00,VWS V14.01,2013-02-07 13:59:00,
2013-02-07 08:00:00,49.8,42.5,29.84,ESE,117,2.0,3.0,76,0.00,,CLR,0.00,VWS V14.01,2013-02-07 14:00:00,
2013-02-07 08:04:00,45.8,40.3,29.83,ESE,113,0.0,0.0,81,0.00,,OVC035,0.00,VWS V14.01,2013-02-07 14:04:00,
2013-02-07 08:09:00,46.1,40.3,29.84,ESE,113,0.0,1.0,80,0.00,,OVC035,0.00,VWS V14.01,2013-02-07 14:09:00,
2013-02-07 08:14:00,46.4,40.6,29.84,ESE,112,0.0,1.0,80,0.00,,OVC035,0.00,VWS V14.01,2013-02-07 14:14:00,
2013-02-07 08:19:00,46.7,41.2,29.84,ESE,108,0.0,1.0,81,0.00,,OVC035,0.00,VWS V14.01,2013-02-07 14:19:00,
2013-02-07 08:24:00,47.1,41.3,29.83,ESE,109,1.0,1.0,80,0.00,,OVC035,0.00,VWS V14.01,2013-02-07 14:24:00,
2013-02-07 08:30:00,47.4,41.5,29.83,SE,131,2.0,3.0,80,0.00,,OVC035,0.00,VWS V14.01,2013-02-07 14:30:00,
2013-02-07 08:35:00,47.9,41.7,29.83,ESE,105,2.0,3.0,79,0.00,,OVC035,0.00,VWS V14.01,2013-02-07 14:35:00,
2013-02-07 08:40:00,48.2,41.7,29.84,ESE,120,0.0,3.0,78,0.00,,OVC035,0.00,VWS V14.01,2013-02-07 14:40:00,
2013-02-07 08:45:00,48.5,41.6,29.84,East,80,0.0,3.0,77,0.00,,OVC041,0.00,VWS V14.01,2013-02-07 14:45:00,
2013-02-07 08:50:00,49.0,42.1,29.84,ESE,113,0.0,3.0,77,0.00,,OVC041,0.00,VWS V14.01,2013-02-07 14:50:00,
2013-02-07 08:55:00,49.5,42.3,29.84,SE,126,1.0,3.0,76,0.00,,OVC041,0.00,VWS V14.01,2013-02-07 14:55:00,
2013-02-07 09:00:00,49.9,42.7,29.84,ESE,119,1.0,2.0,76,0.00,,OVC041,0.00,VWS V14.01,2013-02-07 15:00:00,
2013-02-07 09:05:00,50.3,42.7,29.84,ESE,112,3.0,3.0,75,0.00,,OVC041,0.00,VWS V14.01,2013-02-07 15:05:00,
2013-02-07 09:11:00,50.6,42.6,29.84,SE,124,0.0,3.0,74,0.00,,OVC041,0.00,VWS V14.01,2013-02-07 15:11:00,
2013-02-07 09:16:00,50.8,42.8,29.83,ESE,119,2.0,3.0,74,0.00,,OVC041,0.00,VWS V14.01,2013-02-07 15:16:00,
2013-02-07 09:21:00,51.3,43.7,29.83,SE,132,0.0,7.0,75,0.00,,OVC041,0.00,VWS V14.01,2013-02-07 15:21:00,
2013-02-07 09:26:00,51.8,43.4,29.83,ESE,119,0.0,7.0,73,0.00,,OVC041,0.00,VWS V14.01,2013-02-07 15:26:00,
2013-02-07 09:30:00,56.7,48.5,29.82,SSE,148,3.0,5.0,74,0.00,,CLR,0.00,VWS V14.01,2013-02-07 15:30:00,
2013-02-07 09:31:00,52.1,43.7,29.83,SSE,148,0.0,2.0,73,0.00,,OVC041,0.00,VWS V14.01,2013-02-07 15:31:00,
2013-02-07 09:36:00,52.5,44.1,29.83,SE,134,0.0,3.0,73,0.00,,OVC041,0.00,VWS V14.01,2013-02-07 15:36:00,
2013-02-07 09:41:00,53.1,45.0,29.83,SSE,165,2.0,6.0,74,0.00,,SCT039,0.00,VWS V14.01,2013-02-07 15:41:00,
2013-02-07 09:46:00,53.7,45.6,29.83,South,184,2.0,6.0,74,0.00,,SCT039,0.00,VWS V14.01,2013-02-07 15:46:00,
2013-02-07 09:51:00,54.3,46.6,29.83,SW,218,3.0,6.0,75,0.00,,SCT039,0.00,VWS V14.01,2013-02-07 15:51:00,
2013-02-07 09:57:00,54.7,46.9,29.83,SW,216,4.0,6.0,75,0.00,,SCT039,0.00,VWS V14.01,2013-02-07 15:57:00,
2013-02-07 10:00:00,58.7,49.7,29.82,SSW,194,2.0,5.0,72,0.00,,CLR,0.00,VWS V14.01,2013-02-07 16:00:00,
2013-02-07 10:02:00,55.2,47.4,29.83,South,186,1.0,7.0,75,0.00,,SCT039,0.00,VWS V14.01,2013-02-07 16:02:00,
2013-02-07 10:07:00,55.6,47.8,29.82,South,191,6.0,7.0,75,0.00,,SCT039,0.00,VWS V14.01,2013-02-07 16:07:00,
2013-02-07 10:12:00,55.8,48.0,29.82,SSW,198,0.0,7.0,75,0.00,,SCT039,0.00,VWS V14.01,2013-02-07 16:12:00,
2013-02-07 10:17:00,56.0,48.5,29.82,South,184,1.0,7.0,76,0.00,,SCT039,0.00,VWS V14.01,2013-02-07 16:17:00,
2013-02-07 10:22:00,56.1,48.3,29.82,SE,141,4.0,4.0,75,0.00,,SCT039,0.00,VWS V14.01,2013-02-07 16:22:00,
2013-02-07 10:27:00,56.6,48.8,29.82,SSE,159,2.0,5.0,75,0.00,,SCT039,0.00,VWS V14.01,2013-02-07 16:27:00,
2013-02-07 10:30:00,60.6,50.0,29.80,SE,138,3.0,11.0,68,0.00,,CLR,0.00,VWS V14.01,2013-02-07 16:30:00,
2013-02-07 10:32:00,56.7,48.2,29.82,SE,142,1.0,3.0,73,0.00,,SCT039,0.00,VWS V14.01,2013-02-07 16:32:00,
2013-02-07 10:37:00,56.9,48.3,29.82,SSW,197,3.0,4.0,73,0.00,,SCT039,0.00,VWS V14.01,2013-02-07 16:37:00,
2013-02-07 10:42:00,57.1,48.5,29.82,South,178,0.0,4.0,73,0.00,,SCT120,0.00,VWS V14.01,2013-02-07 16:42:00,
2013-02-07 10:48:00,57.7,48.8,29.82,SW,220,2.0,4.0,72,0.00,,SCT120,0.00,VWS V14.01,2013-02-07 16:48:00,
2013-02-07 10:53:00,58.1,49.1,29.82,SW,215,0.0,4.0,72,0.00,,SCT120,0.00,VWS V14.01,2013-02-07 16:53:00,
2013-02-07 10:58:00,58.5,49.5,29.82,SSW,207,1.0,4.0,72,0.00,,SCT120,0.00,VWS V14.01,2013-02-07 16:58:00,
2013-02-07 11:00:00,61.1,50.5,29.79,SE,125,2.0,8.0,68,0.00,,CLR,0.00,VWS V14.01,2013-02-07 17:00:00,
2013-02-07 11:03:00,58.9,49.5,29.82,South,175,2.0,3.0,71,0.00,,SCT120,0.00,VWS V14.01,2013-02-07 17:03:00,
2013-02-07 11:08:00,59.5,50.5,29.81,SE,145,3.0,4.0,72,0.00,,SCT120,0.00,VWS V14.01,2013-02-07 17:08:00,
2013-02-07 11:13:00,59.9,50.1,29.81,South,175,3.0,7.0,70,0.00,,SCT120,0.00,VWS V14.01,2013-02-07 17:13:00,
2013-02-07 11:18:00,60.1,50.3,29.80,ESE,105,4.0,7.0,70,0.00,,SCT120,0.00,VWS V14.01,2013-02-07 17:18:00,
2013-02-07 11:23:00,60.5,50.3,29.80,ESE,106,11.0,11.0,69,0.00,,SCT120,0.00,VWS V14.01,2013-02-07 17:23:00,
2013-02-07 11:28:00,60.5,49.9,29.80,SE,145,2.0,11.0,68,0.00,,SCT120,0.00,VWS V14.01,2013-02-07 17:28:00,
2013-02-07 11:30:00,60.6,50.4,29.78,SE,142,1.0,8.0,69,0.00,,CLR,0.00,VWS V14.01,2013-02-07 17:30:00,
2013-02-07 11:33:00,60.4,49.4,29.80,SSE,167,2.0,6.0,67,0.00,,SCT120,0.00,VWS V14.01,2013-02-07 17:33:00,
2013-02-07 11:39:00,60.1,49.5,29.80,SSE,163,3.0,8.0,68,0.00,,SCT120,0.00,VWS V14.01,2013-02-07 17:39:00,
2013-02-07 11:44:00,59.9,49.3,29.80,SSE,163,0.0,8.0,68,0.00,,SCT120,0.00,VWS V14.01,2013-02-07 17:44:00,
2013-02-07 11:49:00,60.0,49.4,29.80,SSE,163,2.0,8.0,68,0.00,,SCT120,0.00,VWS V14.01,2013-02-07 17:49:00,
2013-02-07 11:54:00,60.4,49.8,29.79,SE,140,5.0,8.0,68,0.00,,SCT120,0.00,VWS V14.01,2013-02-07 17:54:00,
2013-02-07 11:59:00,61.0,50.0,29.79,ESE,123,2.0,8.0,67,0.00,,SCT120,0.00,VWS V14.01,2013-02-07 17:59:00,
2013-02-07 12:00:00,62.0,50.9,29.76,SE,137,0.0,7.0,67,0.00,,CLR,0.00,VWS V14.01,2013-02-07 18:00:00,
2013-02-07 12:04:00,61.8,50.3,29.79,SW,217,1.0,6.0,66,0.00,,SCT120,0.00,VWS V14.01,2013-02-07 18:04:00,
2013-02-07 12:09:00,61.9,50.0,29.78,SE,146,4.0,6.0,65,0.00,,SCT120,0.00,VWS V14.01,2013-02-07 18:09:00,
2013-02-07 12:14:00,61.4,49.5,29.79,SSE,156,3.0,6.0,65,0.00,,SCT120,0.00,VWS V14.01,2013-02-07 18:14:00,
2013-02-07 12:19:00,60.9,49.9,29.78,SE,142,2.0,8.0,67,0.00,,SCT120,0.00,VWS V14.01,2013-02-07 18:19:00,
2013-02-07 12:24:00,60.7,49.7,29.78,SSE,163,2.0,8.0,67,0.00,,SCT120,0.00,VWS V14.01,2013-02-07 18:24:00,
2013-02-07 12:29:00,60.6,50.4,29.78,SSE,155,0.0,8.0,69,0.00,,SCT120,0.00,VWS V14.01,2013-02-07 18:29:00,
2013-02-07 12:30:00,62.7,51.2,29.75,SSW,200,3.0,8.0,66,0.00,,CLR,0.00,VWS V14.01,2013-02-07 18:30:00,
2013-02-07 12:35:00,60.6,50.8,29.77,ESE,115,2.0,3.0,70,0.00,,SCT120,0.00,VWS V14.01,2013-02-07 18:35:00,
2013-02-07 12:40:00,60.7,50.9,29.77,ESE,120,1.0,4.0,70,0.00,,SCT120,0.00,VWS V14.01,2013-02-07 18:40:00,
2013-02-07 12:45:00,61.2,50.6,29.77,SSW,193,4.0,6.0,68,0.00,,BKN120,0.00,VWS V14.01,2013-02-07 18:45:00,
2013-02-07 12:50:00,61.4,50.8,29.77,South,191,7.0,7.0,68,0.00,,BKN120,0.00,VWS V14.01,2013-02-07 18:50:00,
2013-02-07 12:55:00,61.7,50.6,29.76,South,189,5.0,7.0,67,0.00,,BKN120,0.00,VWS V14.01,2013-02-07 18:55:00,
2013-02-07 13:00:00,62.0,50.9,29.76,SE,138,1.0,1.0,67,0.00,,BKN120,0.00,VWS V14.01,2013-02-07 19:00:00,
2013-02-07 13:05:00,62.5,51.4,29.76,SE,140,0.0,4.0,67,0.00,,BKN120,0.00,VWS V14.01,2013-02-07 19:05:00,
2013-02-07 13:10:00,63.1,51.6,29.75,SE,136,2.0,8.0,66,0.00,,BKN120,0.00,VWS V14.01,2013-02-07 19:10:00,
2013-02-07 13:16:00,63.4,51.4,29.75,SSE,163,1.0,8.0,65,0.00,,BKN120,0.00,VWS V14.01,2013-02-07 19:16:00,
2013-02-07 13:21:00,63.4,51.4,29.75,South,172,1.0,8.0,65,0.00,,BKN120,0.00,VWS V14.01,2013-02-07 19:21:00,
2013-02-07 13:26:00,63.0,51.5,29.75,SE,136,0.0,8.0,66,0.00,,BKN120,0.00,VWS V14.01,2013-02-07 19:26:00,
2013-02-07 13:30:00,61.1,53.5,29.75,SSW,207,1.0,6.0,76,0.00,,CLR,0.00,VWS V14.01,2013-02-07 19:30:00,
2013-02-07 13:31:00,62.7,51.2,29.75,SSW,200,2.0,3.0,66,0.00,,BKN120,0.00,VWS V14.01,2013-02-07 19:31:00,
2013-02-07 13:36:00,62.3,51.2,29.75,South,191,0.0,3.0,67,0.00,,BKN120,0.00,VWS V14.01,2013-02-07 19:36:00,
2013-02-07 13:41:00,62.1,51.4,29.75,SSE,165,1.0,3.0,68,0.00,,SCT100,0.00,VWS V14.01,2013-02-07 19:41:00,
2013-02-07 13:46:00,62.0,51.3,29.75,South,179,0.0,3.0,68,0.00,,SCT100,0.00,VWS V14.01,2013-02-07 19:46:00,
2013-02-07 13:51:00,61.9,51.2,29.75,South,179,2.0,3.0,68,0.00,,SCT100,0.00,VWS V14.01,2013-02-07 19:51:00,
2013-02-07 13:56:00,61.8,51.9,29.75,South,178,0.0,3.0,70,0.00,,SCT100,0.00,VWS V14.01,2013-02-07 19:56:00,
2013-02-07 14:00:00,58.7,54.2,29.75,WSW,244,4.0,5.0,85,0.01,,CLR,0.01,VWS V14.01,2013-02-07 20:00:00,
2013-02-07 14:01:00,61.7,51.8,29.74,South,176,1.0,1.0,70,0.00,,SCT100,0.00,VWS V14.01,2013-02-07 20:01:00,
2013-02-07 14:07:00,61.7,52.2,29.74,South,183,3.0,4.0,71,0.00,,SCT100,0.00,VWS V14.01,2013-02-07 20:07:00,
2013-02-07 14:12:00,61.7,52.2,29.74,South,178,0.0,4.0,71,0.00,,SCT100,0.00,VWS V14.01,2013-02-07 20:12:00,
2013-02-07 14:17:00,61.6,52.1,29.75,South,184,2.0,6.0,71,0.00,,SCT100,0.00,VWS V14.01,2013-02-07 20:17:00,
2013-02-07 14:22:00,61.5,52.4,29.75,SSW,192,0.0,6.0,72,0.00,,SCT100,0.00,VWS V14.01,2013-02-07 20:22:00,
2013-02-07 14:27:00,61.3,53.3,29.75,SSW,192,2.0,6.0,75,0.00,,SCT100,0.00,VWS V14.01,2013-02-07 20:27:00,
2013-02-07 14:30:00,58.2,54.0,29.75,NNW,340,0.0,5.0,86,0.01,,CLR,0.01,VWS V14.01,2013-02-07 20:30:00,
2013-02-07 14:32:00,60.8,53.9,29.75,SSW,193,2.0,5.0,78,0.00,,SCT100,0.00,VWS V14.01,2013-02-07 20:32:00,
2013-02-07 14:37:00,60.2,54.0,29.75,SSW,203,2.0,5.0,80,0.00,,SCT100,0.00,VWS V14.01,2013-02-07 20:37:00,
2013-02-07 14:42:00,59.7,54.2,29.75,South,183,2.0,5.0,82,0.00,,SCT100,0.00,VWS V14.01,2013-02-07 20:42:00,
2013-02-07 14:47:00,59.2,53.7,29.75,SSW,193,4.0,5.0,82,0.00,,SCT100,0.00,VWS V14.01,2013-02-07 20:47:00,
2013-02-07 14:52:00,58.9,53.8,29.75,SW,236,1.0,5.0,83,0.01,,RA,0.01,VWS V14.01,2013-02-07 20:52:00,
2013-02-07 14:58:00,58.7,54.5,29.75,SW,234,1.0,5.0,86,0.01,,RA,0.01,VWS V14.01,2013-02-07 20:58:00,
2013-02-07 15:00:00,57.1,53.6,29.74,NE,36,0.0,3.0,88,0.01,,CLR,0.01,VWS V14.01,2013-02-07 21:00:00,
2013-02-07 15:03:00,58.7,54.2,29.75,SW,229,0.0,5.0,85,0.01,,RA,0.01,VWS V14.01,2013-02-07 21:03:00,
2013-02-07 15:08:00,58.7,54.2,29.75,WSW,257,0.0,5.0,85,0.01,,RA,0.01,VWS V14.01,2013-02-07 21:08:00,
2013-02-07 15:13:00,58.8,54.6,29.75,NW,320,4.0,5.0,86,0.01,,RA,0.01,VWS V14.01,2013-02-07 21:13:00,
2013-02-07 15:18:00,58.9,55.0,29.75,North,360,2.0,5.0,87,0.01,,RA,0.01,VWS V14.01,2013-02-07 21:18:00,
2013-02-07 15:23:00,58.6,54.1,29.75,North,355,1.0,5.0,85,0.01,,RA,0.01,VWS V14.01,2013-02-07 21:23:00,
2013-02-07 15:28:00,58.3,54.1,29.75,NNW,327,1.0,5.0,86,0.01,,RA,0.01,VWS V14.01,2013-02-07 21:28:00,
2013-02-07 15:30:00,56.0,52.8,29.74,NE,44,0.0,5.0,89,0.00,,CLR,0.01,VWS V14.01,2013-02-07 21:30:00,
2013-02-07 15:34:00,58.1,54.3,29.74,North,5,3.0,3.0,87,0.01,,RA,0.01,VWS V14.01,2013-02-07 21:34:00,
2013-02-07 15:39:00,57.8,53.7,29.74,NNE,22,0.0,3.0,86,0.01,,RA,0.01,VWS V14.01,2013-02-07 21:39:00,
2013-02-07 15:44:00,57.6,53.8,29.74,NNE,32,1.0,3.0,87,0.01,,-RA,0.01,VWS V14.01,2013-02-07 21:44:00,
2013-02-07 15:49:00,57.5,54.0,29.74,North,9,3.0,3.0,88,0.01,,-RA,0.01,VWS V14.01,2013-02-07 21:49:00,
2013-02-07 15:54:00,57.3,53.8,29.74,NNE,25,1.0,3.0,88,0.01,,-RA,0.01,VWS V14.01,2013-02-07 21:54:00,
2013-02-07 15:59:00,57.2,53.7,29.74,NE,36,0.0,3.0,88,0.01,,-RA,0.01,VWS V14.01,2013-02-07 21:59:00,
2013-02-07 16:00:00,55.3,52.7,29.76,NE,43,0.0,1.0,91,0.00,,CLR,0.01,VWS V14.01,2013-02-07 22:00:00,
2013-02-07 16:04:00,56.9,53.4,29.74,NE,38,0.0,2.0,88,0.00,,-RA,0.01,VWS V14.01,2013-02-07 22:04:00,
2013-02-07 16:09:00,56.8,53.3,29.74,East,92,1.0,4.0,88,0.00,,-RA,0.01,VWS V14.01,2013-02-07 22:09:00,
2013-02-07 16:14:00,56.6,53.1,29.74,NE,56,0.0,5.0,88,0.00,,-RA,0.01,VWS V14.01,2013-02-07 22:14:00,
2013-02-07 16:20:00,56.4,52.9,29.74,NNE,13,1.0,5.0,88,0.00,,-RA,0.01,VWS V14.01,2013-02-07 22:20:00,
2013-02-07 16:25:00,56.2,53.0,29.75,NNE,32,0.0,5.0,89,0.00,,-RA,0.01,VWS V14.01,2013-02-07 22:25:00,
2013-02-07 16:30:00,56.0,52.8,29.74,NE,44,0.0,5.0,89,0.00,,-RA,0.01,VWS V14.01,2013-02-07 22:30:00,
2013-02-07 16:35:00,55.9,52.7,29.74,NE,44,0.0,0.0,89,0.00,,-RA,0.01,VWS V14.01,2013-02-07 22:35:00,
2013-02-07 16:40:00,55.8,52.9,29.74,NE,44,0.0,0.0,90,0.00,,-RA,0.01,VWS V14.01,2013-02-07 22:40:00,
2013-02-07 16:45:00,55.6,52.7,29.75,NE,44,0.0,0.0,90,0.00,,OVC020,0.01,VWS V14.01,2013-02-07 22:45:00,
2013-02-07 16:50:00,55.5,52.6,29.75,NE,44,0.0,0.0,90,0.00,,OVC020,0.01,VWS V14.01,2013-02-07 22:50:00,
2013-02-07 16:55:00,55.4,52.8,29.75,NE,43,0.0,1.0,91,0.00,,OVC020,0.01,VWS V14.01,2013-02-07 22:55:00,
2013-02-07 17:00:00,55.3,52.7,29.76,NE,43,0.0,0.0,91,0.00,,OVC020,0.01,VWS V14.01,2013-02-07 23:00:00,
2013-02-07 17:06:00,55.3,53.0,29.76,WNW,293,1.0,1.0,92,0.00,,OVC020,0.01,VWS V14.01,2013-02-07 23:06:00,
2013-02-07 17:11:00,55.2,52.9,29.77,NW,323,0.0,2.0,92,0.03,,OVC020,0.04,VWS V14.01,2013-02-07 23:11:00,
2013-02-07 17:16:00,55.0,53.0,29.76,ENE,58,0.0,2.0,93,0.08,,OVC020,0.09,VWS V14.01,2013-02-07 23:16:00,
2013-02-07 17:21:00,54.9,52.9,29.76,ENE,70,0.0,2.0,93,0.09,,OVC020,0.10,VWS V14.01,2013-02-07 23:21:00,
2013-02-07 17:26:00,54.8,52.8,29.76,NNE,28,0.0,2.0,93,0.11,,OVC020,0.12,VWS V14.01,2013-02-07 23:26:00,
2013-02-07 17:30:00,53.6,52.2,29.79,North,9,3.0,6.0,95,0.20,,CLR,0.21,VWS V14.01,2013-02-07 23:30:00,
2013-02-07 17:31:00,54.8,53.1,29.76,North,5,2.0,2.0,94,0.11,,OVC020,0.12,VWS V14.01,2013-02-07 23:31:00,
2013-02-07 17:36:00,54.6,52.9,29.77,North,5,0.0,3.0,94,0.11,,OVC020,0.12,VWS V14.01,2013-02-07 23:36:00,
2013-02-07 17:41:00,54.5,52.8,29.78,WNW,300,1.0,3.0,94,0.11,,-RA,0.12,VWS V14.01,2013-02-07 23:41:00,
2013-02-07 17:47:00,54.4,52.7,29.78,North,360,3.0,4.0,94,0.15,,-RA,0.16,VWS V14.01,2013-02-07 23:47:00,
2013-02-07 17:52:00,54.3,52.6,29.78,North,5,0.0,5.0,94,0.19,,-RA,0.20,VWS V14.01,2013-02-07 23:52:00,
2013-02-07 17:57:00,54.2,52.5,29.78,North,5,1.0,5.0,94,0.19,,-RA,0.20,VWS V14.01,2013-02-07 23:57:00,
2013-02-07 18:00:00,53.1,51.7,29.79,NW,326,3.0,7.0,95,0.09,,CLR,0.21,VWS V14.01,2013-02-08 00:00:00,
2013-02-07 18:02:00,54.1,52.4,29.78,North,360,1.0,1.0,94,0.20,, +RA,0.21,VWS V14.01,2013-02-08 00:02:00,
2013-02-07 18:07:00,54.1,52.4,29.78,North,5,3.0,4.0,94,0.20,, +RA,0.21,VWS V14.01,2013-02-08 00:07:00,
2013-02-07 18:12:00,54.0,52.6,29.79,NNW,333,3.0,4.0,95,0.20,,-RA,0.21,VWS V14.01,2013-02-08 00:12:00,
2013-02-07 18:17:00,53.9,52.5,29.79,NNW,329,4.0,4.0,95,0.20,,-RA,0.21,VWS V14.01,2013-02-08 00:17:00,
2013-02-07 18:22:00,53.8,52.4,29.79,NNW,338,5.0,6.0,95,0.20,,-RA,0.21,VWS V14.01,2013-02-08 00:22:00,
2013-02-07 18:27:00,53.7,52.3,29.79,NNE,30,0.0,6.0,95,0.20,,-RA,0.21,VWS V14.01,2013-02-08 00:27:00,
2013-02-07 18:30:00,52.8,51.4,29.80,NNW,329,2.0,9.0,95,0.02,,CLR,0.22,VWS V14.01,2013-02-08 00:30:00,
2013-02-07 18:33:00,53.6,52.2,29.79,WNW,294,3.0,4.0,95,0.09,,-RA,0.21,VWS V14.01,2013-02-08 00:33:00,
2013-02-07 18:38:00,53.5,52.1,29.79,NNW,336,5.0,6.0,95,0.09,,-RA,0.21,VWS V14.01,2013-02-08 00:38:00,
2013-02-07 18:43:00,53.4,52.0,29.79,NNW,337,0.0,6.0,95,0.09,,-RA,0.21,VWS V14.01,2013-02-08 00:43:00,
2013-02-07 18:48:00,53.3,51.9,29.79,North,5,0.0,6.0,95,0.09,,-RA,0.21,VWS V14.01,2013-02-08 00:48:00,
2013-02-07 18:53:00,53.2,51.8,29.79,NNE,13,1.0,6.0,95,0.09,,OVC037,0.21,VWS V14.01,2013-02-08 00:53:00,
2013-02-07 18:58:00,53.2,51.8,29.79,NW,309,2.0,7.0,95,0.09,,OVC037,0.21,VWS V14.01,2013-02-08 00:58:00,
2013-02-07 19:00:00,52.4,50.7,29.81,West,281,3.0,9.0,94,0.01,,CLR,0.22,VWS V14.01,2013-02-08 01:00:00,
2013-02-07 19:03:00,53.1,51.7,29.80,NNW,345,4.0,6.0,95,0.01,,OVC037,0.21,VWS V14.01,2013-02-08 01:03:00,
2013-02-07 19:08:00,53.0,51.6,29.80,NW,311,2.0,6.0,95,0.01,,OVC037,0.21,VWS V14.01,2013-02-08 01:08:00,
2013-02-07 19:14:00,53.0,51.6,29.80,NNW,347,2.0,8.0,95,0.02,,OVC037,0.22,VWS V14.01,2013-02-08 01:14:00,
2013-02-07 19:19:00,52.9,51.5,29.80,NNW,347,0.0,8.0,95,0.02,,OVC037,0.22,VWS V14.01,2013-02-08 01:19:00,
2013-02-07 19:24:00,52.9,51.5,29.80,NNW,346,8.0,8.0,95,0.02,,OVC037,0.22,VWS V14.01,2013-02-08 01:24:00,
2013-02-07 19:29:00,52.8,51.4,29.80,North,349,6.0,8.0,95,0.02,,OVC037,0.22,VWS V14.01,2013-02-08 01:29:00,
2013-02-07 19:30:00,51.5,49.3,29.83,NNW,347,6.0,10.0,92,0.01,,CLR,0.22,VWS V14.01,2013-02-08 01:30:00,
2013-02-07 19:34:00,52.7,51.0,29.80,NNE,13,6.0,6.0,94,0.01,,OVC037,0.22,VWS V14.01,2013-02-08 01:34:00,
2013-02-07 19:39:00,52.6,50.9,29.80,North,355,5.0,9.0,94,0.01,,OVC037,0.22,VWS V14.01,2013-02-08 01:39:00,
2013-02-07 19:44:00,52.6,50.9,29.80,NW,319,3.0,9.0,94,0.01,,OVC037,0.22,VWS V14.01,2013-02-08 01:44:00,
2013-02-07 19:49:00,52.5,51.1,29.81,NNW,338,3.0,9.0,95,0.01,,OVC037,0.22,VWS V14.01,2013-02-08 01:49:00,
2013-02-07 19:55:00,52.4,51.0,29.81,WNW,290,8.0,9.0,95,0.01,,OVC060,0.22,VWS V14.01,2013-02-08 01:55:00,
2013-02-07 20:00:00,52.3,50.6,29.81,NNW,329,4.0,9.0,94,0.01,,OVC060,0.22,VWS V14.01,2013-02-08 02:00:00,
2013-02-07 20:05:00,52.3,50.6,29.81,NW,304,2.0,7.0,94,0.01,,OVC060,0.22,VWS V14.01,2013-02-08 02:05:00,
2013-02-07 20:10:00,52.1,50.4,29.82,NNW,332,3.0,7.0,94,0.01,,OVC060,0.22,VWS V14.01,2013-02-08 02:10:00,
2013-02-07 20:15:00,52.0,50.0,29.82,NNW,335,5.0,9.0,93,0.01,,OVC060,0.22,VWS V14.01,2013-02-08 02:15:00,
2013-02-07 20:20:00,51.8,49.8,29.82,NNW,333,5.0,9.0,93,0.01,,OVC060,0.22,VWS V14.01,2013-02-08 02:20:00,
2013-02-07 20:25:00,51.6,49.7,29.82,NNW,339,3.0,10.0,93,0.01,,OVC060,0.22,VWS V14.01,2013-02-08 02:25:00,
2013-02-07 20:30:00,51.5,49.3,29.83,WNW,291,4.0,6.0,92,0.00,,OVC060,0.22,VWS V14.01,2013-02-08 02:30:00,
2013-02-07 20:36:00,51.3,49.1,29.84,NW,306,6.0,11.0,92,0.00,,OVC060,0.22,VWS V14.01,2013-02-08 02:36:00,
2013-02-07 20:41:00,51.2,49.0,29.84,WNW,296,5.0,11.0,92,0.00,,OVC060,0.22,VWS V14.01,2013-02-08 02:41:00,
2013-02-07 20:46:00,51.1,48.9,29.84,NNW,337,5.0,11.0,92,0.00,,OVC060,0.22,VWS V14.01,2013-02-08 02:46:00,
2013-02-07 20:51:00,51.0,48.8,29.84,WNW,299,6.0,11.0,92,0.01,,OVC023,0.23,VWS V14.01,2013-02-08 02:51:00,
2013-02-07 20:56:00,50.9,48.7,29.84,NW,321,5.0,11.0,92,0.01,,OVC023,0.23,VWS V14.01,2013-02-08 02:56:00,
2013-02-07 21:00:00,49.1,47.2,29.87,North,351,6.0,15.0,93,0.08,,CLR,0.30,VWS V14.01,2013-02-08 03:00:00,
2013-02-07 21:01:00,50.7,48.5,29.84,WNW,300,5.0,7.0,92,0.02,,-RA,0.24,VWS V14.01,2013-02-08 03:01:00,
2013-02-07 21:06:00,50.6,48.7,29.85,NNW,335,3.0,8.0,93,0.02,,-RA,0.24,VWS V14.01,2013-02-08 03:06:00,
2013-02-07 21:11:00,50.6,48.7,29.85,WNW,285,1.0,8.0,93,0.03,,-RA,0.25,VWS V14.01,2013-02-08 03:11:00,
2013-02-07 21:16:00,50.4,48.5,29.86,NNW,332,5.0,8.0,93,0.04,,-RA,0.26,VWS V14.01,2013-02-08 03:16:00,
2013-02-07 21:21:00,50.3,48.4,29.86,NW,325,3.0,8.0,93,0.05,,-RA,0.27,VWS V14.01,2013-02-08 03:21:00,
2013-02-07 21:26:00,50.2,48.3,29.86,NNW,329,3.0,13.0,93,0.06,,-RA,0.28,VWS V14.01,2013-02-08 03:26:00,
2013-02-07 21:30:00,48.3,46.1,29.87,NNW,331,7.0,12.0,92,0.06,,CLR,0.30,VWS V14.01,2013-02-08 03:30:00,
2013-02-07 21:31:00,50.1,48.4,29.86,NNW,334,6.0,9.0,94,0.06,,-RA,0.28,VWS V14.01,2013-02-08 03:31:00,
2013-02-07 21:37:00,50.0,48.1,29.86,NW,314,6.0,13.0,93,0.06,,-RA,0.28,VWS V14.01,2013-02-08 03:37:00,
2013-02-07 21:42:00,49.8,47.9,29.87,North,355,9.0,15.0,93,0.06,,-RA,0.28,VWS V14.01,2013-02-08 03:42:00,
2013-02-07 21:47:00,49.6,47.4,29.87,NW,315,6.0,15.0,92,0.07,,-RA,0.29,VWS V14.01,2013-02-08 03:47:00,
2013-02-07 21:52:00,49.4,47.5,29.87,North,5,7.0,15.0,93,0.08,,-RA,0.30,VWS V14.01,2013-02-08 03:52:00,
2013-02-07 21:57:00,49.2,47.3,29.87,WNW,298,6.0,15.0,93,0.08,,-RA,0.30,VWS V14.01,2013-02-08 03:57:00,
2013-02-07 22:00:00,47.3,44.8,29.88,NW,321,5.0,14.0,91,0.02,,CLR,0.30,VWS V14.01,2013-02-08 04:00:00,
2013-02-07 22:02:00,49.0,47.1,29.87,North,5,2.0,8.0,93,0.06,,-RA,0.30,VWS V14.01,2013-02-08 04:02:00,
2013-02-07 22:07:00,48.8,46.9,29.87,NW,324,5.0,9.0,93,0.06,,-RA,0.30,VWS V14.01,2013-02-08 04:07:00,
2013-02-07 22:13:00,48.7,46.8,29.87,North,349,4.0,9.0,93,0.06,,-RA,0.30,VWS V14.01,2013-02-08 04:13:00,
2013-02-07 22:18:00,48.6,47.0,29.87,NE,38,5.0,9.0,94,0.06,,-RA,0.30,VWS V14.01,2013-02-08 04:18:00,
2013-02-07 22:23:00,48.5,46.6,29.87,North,10,5.0,11.0,93,0.06,,-RA,0.30,VWS V14.01,2013-02-08 04:23:00,
2013-02-07 22:28:00,48.3,46.1,29.87,NE,39,4.0,12.0,92,0.06,,-RA,0.30,VWS V14.01,2013-02-08 04:28:00,
2013-02-07 22:30:00,46.4,43.3,29.90,North,5,10.0,15.0,89,0.00,,CLR,0.30,VWS V14.01,2013-02-08 04:30:00,
2013-02-07 22:33:00,48.1,45.9,29.87,NW,319,6.0,14.0,92,0.02,,-RA,0.30,VWS V14.01,2013-02-08 04:33:00,
2013-02-07 22:38:00,48.0,45.8,29.88,NNE,16,2.0,14.0,92,0.02,,-RA,0.30,VWS V14.01,2013-02-08 04:38:00,
2013-02-07 22:43:00,47.9,45.7,29.87,WNW,296,3.0,14.0,92,0.02,,OVC070,0.30,VWS V14.01,2013-02-08 04:43:00,
2013-02-07 22:48:00,47.7,45.5,29.88,North,10,2.0,14.0,92,0.02,,OVC070,0.30,VWS V14.01,2013-02-08 04:48:00,
2013-02-07 22:53:00,47.5,45.0,29.88,North,9,4.0,14.0,91,0.02,,OVC070,0.30,VWS V14.01,2013-02-08 04:53:00,
2013-02-07 22:58:00,47.3,44.8,29.88,WNW,291,5.0,14.0,91,0.02,,OVC070,0.30,VWS V14.01,2013-02-08 04:58:00,
2013-02-07 23:00:00,47.3,44.8,29.88,NNW,330,6.0,14.0,91,0.02,,OVC070,0.30,VWS V14.01,2013-02-08 05:00:00,
2013-02-07 23:01:00,47.3,44.8,29.88,NNW,346,3.0,5.0,91,0.00,,OVC070,0.30,VWS V14.01,2013-02-08 05:01:00,
2013-02-07 23:06:00,47.2,44.7,29.88,NNW,330,11.0,12.0,91,0.00,,OVC070,0.30,VWS V14.01,2013-02-08 05:06:00,
2013-02-07 23:11:00,47.0,44.5,29.88,North,9,3.0,12.0,91,0.00,,OVC070,0.30,VWS V14.01,2013-02-08 05:11:00,
2013-02-07 23:16:00,46.9,44.4,29.89,North,355,7.0,14.0,91,0.00,,OVC070,0.30,VWS V14.01,2013-02-08 05:16:00,
2013-02-07 23:21:00,46.7,43.9,29.89,NNW,348,4.0,14.0,90,0.00,,OVC070,0.30,VWS V14.01,2013-02-08 05:21:00,
2013-02-07 23:26:00,46.5,43.4,29.90,NNW,344,8.0,14.0,89,0.00,,OVC070,0.30,VWS V14.01,2013-02-08 05:26:00,
2013-02-07 23:30:00,45.1,41.5,29.92,North,360,3.0,13.0,87,0.00,,CLR,0.00,VWS V14.01,2013-02-08 05:30:00,
2013-02-07 23:31:00,46.4,43.0,29.90,NNW,348,3.0,11.0,88,0.00,,OVC070,0.30,VWS V14.01,2013-02-08 05:31:00,
2013-02-07 23:36:00,46.2,42.8,29.90,NNW,338,6.0,11.0,88,0.00,,OVC070,0.30,VWS V14.01,2013-02-08 05:36:00,
2013-02-07 23:42:00,46.1,42.8,29.91,North,350,8.0,12.0,88,0.00,,OVC070,0.30,VWS V14.01,2013-02-08 05:42:00,
2013-02-07 23:47:00,45.9,42.3,29.91,North,349,7.0,14.0,87,0.00,,OVC070,0.30,VWS V14.01,2013-02-08 05:47:00,
2013-02-07 23:52:00,45.8,42.2,29.91,North,351,4.0,14.0,87,0.00,,OVC015,0.30,VWS V14.01,2013-02-08 05:52:00,
2013-02-07 23:57:00,45.7,42.1,29.91,NNE,21,5.0,14.0,87,0.00,,OVC015,0.30,VWS V14.01,2013-02-08 05:57:00,